Probability
0 0 0 0 0 0 0 0 0 0 0 0 0 0 0 0 0 0 0 1 1 1 0 0 0 0 0 0 0 0 0 0 0 0 0 0 0 0 0 0 0 0 0 0 0 0 0 0 0
0 0 0 0 0 0 0 0 0 0 0 0 0 0 0 0 0 0 0 0 0 0 0 0 0 0 0 0 0 0 0 0 0 0 0 0 0 0 0 0 0 0 0 0 0 0 0 0 0
0 0 0 0 0 0 0 0 0 0 0 0 0 0 0 0 0 0 0 0 0 0 0 0 0 0 0 0 0 0 0 0 0 0 0 0 0 0 0 0 0 0 0 0 0 0 0 0 0
0 0 0 0 0 0 0 0 0 0 0 0 0 0 0 0 0 0 0 0 0 0 0 0 0 0 0 0 0 0 0 0 0 0 0 0 0 0 0 0 0 0 0 0 0 0 0 0 0
0 0 0 0 0 0 0 0 0 0 0 0 0 0 0 0 0 0 0 0 0 0 0 0 0 0 0 0 0 0 0 0 0 0 0 0 0 0 0 0 0 0 0 0 0 0 0 0 0
0 0 0 0 0 0 0 0 0 0 0 0 0 0 0 0 0 0 0 0 0 0 0 0 0 0 0 0 0 0 0 0 0 0 0 0 0 0 0 0 0 0 0 0 0 0 0 0 0
0 0 0 0 0 0 0 0 0 0 0 0 0 0 0 0 0 0 0 0 0 0 0 0 0 0 0 0 0 0 0 0 0 0 0 0 0 0 0 0 0 0 0 0 0 0 0 0 0
0 0 0 0 0 0 0 0 0 0 0 0 0 0 0 0 0 0 0 0 0 0 0 0 0 0 0 0 0 0 0 0 0 0 0 0 0 0 0 0 0 0 0 0 0 0 0 0 0
0 0 0 0 0 0 0 0 0 0 0 0 0 0 0 0 0 0 0 0 0 0 0 0 0 0 0 0 0 0 0 0 0 0 0 0 0 0 0 0 1 1 0 0 0 0 0 0 0
0 0 0 0 0 0 0 0 0 0 0 0 0 0 0 0 0 0 0 0 0 0 0 0 0 0 0 0 0 0 2 2 1 0 0 0 0 0 0 1 2 2 0 0 0 0 0 0 0
0 0 0 0 0 0 0 0 0 0 0 1 4 4 1 0 0 0 0 0 0 0 0 1 2 1 0 0 0 1 4 6 4 3 3 1 0 0 1 2 2 2 0 0 0 0 0 0 0
0 0 0 0 0 0 0 0 0 2 5 11 19 18 7 0 0 0 0 1 1 1 2 8 12 7 1 1 2 2 4 7 6 7 6 2 1 3 5 7 5 3 1 1 1 0 0 0 0
0 0 0 0 0 0 0 0 0 7 20 34 46 41 18 2 0 0 0 3 5 3 5 19 29 23 13 8 7 4 4 5 7 12 12 6 6 12 17 17 12 5 3 4 3 1 0 0 0
0 0 0 0 0 0 0 0 0 10 32 53 66 60 32 9 3 3 4 8 10 6 14 35 49 51 42 27 16 9 6 6 8 17 25 20 18 26 33 32 23 12 9 8 5 1 0 0 0
0 0 0 0 0 0 0 0 1 10 31 53 66 67 52 33 23 21 25 27 23 23 38 55 64 71 73 58 37 18 10 14 21 32 45 46 37 41 51 51 40 27 19 15 9 4 2 1 0
0 0 0 0 0 0 0 0 1 8 25 45 59 69 72 67 59 56 60 58 51 56 73 74 68 78 90 86 66 42 31 39 52 61 71 72 62 61 71 71 61 48 37 27 17 11 7 3 2
0 0 0 0 0 0 0 0 1 5 17 37 57 73 83 86 86 85 84 82 80 86 94 88 77 84 96 98 89 73 64 69 77 85 89 89 83 82 87 86 76 66 58 45 31 23 17 9 6
0 0 0 0 0 0 0 0 0 2 8 25 52 75 86 91 94 94 92 90 93 97 99 96 92 91 97 100 98 92 87 86 88 90 90 90 91 93 95 92 84 77 72 62 48 36 27 17 13
0 0 0 0 0 0 0 0 0 3 9 26 53 77 87 91 94 96 95 94 97 99 100 100 98 97 98 100 100 98 96 95 94 89 85 86 89 92 94 93 89 83 77 68 59 48 35 24 18
0 0 0 0 0 0 0 0 1 7 21 42 67 83 89 89 92 95 96 97 99 100 100 100 100 100 100 100 100 100 100 99 95 89 86 86 87 89 91 93 90 85 78 68 58 50 39 26 21
0 0 0 0 0 0 0 0 2 12 32 58 79 90 92 92 93 94 95 98 99 100 100 100 100 100 100 100 100 100 100 99 95 92 90 89 88 88 91 93 91 87 80 68 54 44 35 26 21
0 0 0 0 0 0 0 0 1 11 34 62 83 93 94 94 94 94 93 96 98 99 99 100 99 99 100 100 100 100 100 99 98 97 96 94 92 91 92 93 92 89 82 69 52 40 34 26 20
0 0 0 0 0 0 0 0 0 8 32 64 88 93 88 84 85 87 88 91 94 96 97 98 98 98 99 100 100 100 100 100 100 100 99 98 97 95 91 90 91 89 82 67 50 39 33 25 19
0 0 0 0 0 0 0 0 3 17 45 76 92 91 77 67 66 70 75 80 83 87 91 95 96 97 99 100 100 100 100 100 100 100 99 97 96 93 87 81 81 82 76 60 44 33 25 20 18
0 0 0 0 0 0 0 5 21 47 74 90 93 83 66 50 43 47 57 66 71 77 85 91 93 96 98 99 99 100 100 100 99 98 95 90 84 77 69 61 60 60 55 43 29 20 15 12 12
0 0 0 0 0 0 0 11 41 72 87 86 77 63 47 34 28 32 44 57 67 76 83 88 91 93 93 92 93 96 97 96 94 90 82 71 58 48 38 31 30 29 26 19 12 8 6 5 5
0 0 0 1 0 0 0 13 43 70 74 62 47 35 26 19 17 23 36 51 65 76 83 87 87 85 81 77 78 81 82 81 77 69 56 41 28 19 12 8 7 7 6 4 2 1 1 1 1
0 0 1 2 1 0 1 9 31 51 53 40 25 14 8 7 8 14 23 35 48 61 70 73 70 66 60 56 54 52 51 50 46 37 26 15 8 4 1 0 0 0 0 0 0 0 0 0 0
0 0 0 1 1 0 1 6 17 29 33 27 16 6 2 1 2 4 9 15 22 31 39 43 42 39 35 30 27 23 20 18 16 12 7 4 2 1 0 0 0 0 0 0 0 0 0 0 0
0 0 0 0 1 0 1 2 7 14 21 19 12 6 2 1 0 1 2 5 7 11 17 20 21 20 17 14 11 10 7 5 4 3 2 1 0 0 0 0 0 0 0 0 0 0 0 0 0
Wind_Speed
11 13 11 8 7 7 5 7 10 8 11 13 12 11 20 17 13 14 12 18 23 19 17 16 13 12 11 10 10 11 10 10 9 9 8 8 8 9 8 8 7 7 7 7 6 6 6 6 7
12 15 10 7 8 3 4 8 11 13 10 8 7 9 19 15 16 15 14 20 22 19 16 15 15 13 11 10 9 10 11 10 10 9 9 8 8 8 8 8 7 7 6 5 5 5 5 6 7
13 16 8 8 10 1 4 8 9 9 7 7 8 14 14 10 14 14 15 19 20 18 17 16 15 13 12 10 9 9 10 10 9 8 9 8 8 7 7 7 7 6 6 5 4 4 5 5 6
9 8 8 10 10 3 7 7 6 8 7 4 5 13 11 10 14 16 16 19 20 19 18 16 16 14 12 11 10 9 9 10 9 8 7 7 7 6 6 6 6 5 5 4 4 3 4 5 6
8 8 11 12 10 4 8 7 5 6 6 5 10 15 12 12 18 17 15 17 18 19 18 16 16 15 13 12 11 10 10 9 8 7 7 7 5 5 5 5 4 4 3 3 3 3 3 4 5
8 9 11 10 10 1 6 6 2 6 6 6 12 16 12 13 15 15 14 14 18 20 18 16 16 15 13 12 12 11 10 9 9 8 7 7 6 4 4 4 3 3 2 2 2 3 3 5 6
9 11 14 14 10 4 5 6 3 3 2 6 8 14 12 14 13 13 12 12 17 20 17 14 14 13 13 12 11 11 10 10 9 9 8 7 6 6 6 6 6 5 5 4 5 5 5 6 7
10 11 16 16 12 5 6 5 3 4 5 7 1 7 14 17 16 14 11 10 14 18 16 15 14 12 11 11 11 11 10 10 9 8 8 8 8 9 10 9 10 9 8 7 7 7 8 8 8
14 12 14 16 11 2 8 4 4 3 8 6 7 11 21 21 18 15 11 11 9 13 13 14 14 12 12 12 13 12 10 10 9 9 10 8 8 10 10 13 12 12 10 9 9 9 9 9 10
12 12 17 18 12 7 5 2 4 6 9 8 12 18 20 19 18 15 13 13 11 10 11 11 13 12 11 10 10 8 9 9 9 8 9 8 7 6 5 9 13 13 11 10 10 10 9 9 8
16 17 17 18 11 8 7 4 5 8 10 12 15 18 18 18 16 15 13 12 10 8 9 8 11 8 9 6 9 6 6 7 8 8 9 7 5 4 4 5 7 7 8 7 8 9 7 8 7
17 16 17 18 10 5 9 9 5 8 3 10 18 20 18 18 17 16 13 12 11 10 10 8 10 6 4 5 6 4 4 6 6 7 7 5 3 2 0 1 3 3 3 4 4 4 6 7 7
17 17 17 15 12 6 9 10 10 7 8 10 18 19 18 17 16 14 14 13 13 9 9 8 8 7 4 2 1 4 3 4 4 3 5 4 2 3 1 0 0 2 3 4 3 3 4 4 4
14 14 17 17 13 13 11 11 14 9 11 13 16 16 16 16 16 15 14 12 13 12 11 9 8 8 5 3 2 2 2 1 2 3 6 6 2 1 1 1 1 3 2 1 2 4 3 3 3
13 14 15 17 14 14 13 14 16 11 12 13 14 15 15 14 15 15 14 12 13 13 11 9 9 8 7 6 6 4 4 4 3 3 4 5 4 2 2 1 2 2 2 2 2 4 3 4 5
12 14 16 17 17 17 17 16 13 13 12 11 11 14 14 13 13 13 14 11 10 11 9 9 10 10 9 7 5 4 3 2 1 2 3 5 4 2 2 1 2 1 2 2 2 3 3 4 4
13 15 17 18 19 20 19 15 12 10 13 11 11 11 12 13 11 10 13 13 11 9 9 9 7 9 10 9 6 5 3 1 0 1 2 4 4 4 3 2 2 2 1 2 4 2 3 3 4
13 14 16 17 16 18 17 13 9 6 9 10 11 10 10 12 11 9 11 13 12 9 8 8 7 6 7 7 5 4 4 3 2 1 2 3 3 3 2 2 3 2 1 1 2 3 3 3 3
16 15 16 13 12 13 13 12 10 7 7 7 7 8 8 7 9 7 6 7 10 10 9 7 7 6 5 4 5 6 5 4 3 2 3 3 3 3 3 3 3 3 2 2 2 2 3 3 3
12 14 15 16 6 2 6 9 11 11 6 5 6 6 8 6 6 5 3 2 2 5 6 6 6 5 5 4 3 3 3 3 4 4 4 5 5 4 5 4 3 3 2 3 2 2 2 3 3
12 14 15 17 15 8 8 14 16 12 8 9 8 5 5 6 6 4 1 2 3 3 2 2 2 2 3 4 3 3 2 3 4 5 5 6 7 7 6 5 4 4 4 3 3 3 4 4 3
12 11 13 15 14 11 11 13 15 16 14 12 11 8 7 7 7 7 6 7 7 6 6 5 5 3 1 1 2 4 4 5 5 4 5 6 7 8 7 6 6 5 4 4 4 4 3 4 4
12 10 11 13 13 15 15 15 14 15 15 15 14 12 9 7 7 8 7 7 7 7 7 6 6 6 4 2 1 2 2 3 3 3 4 4 5 6 7 7 6 5 4 4 4 2 2 2 3
10 11 12 12 12 18 18 18 17 15 11 14 15 13 10 7 6 6 6 5 5 5 4 5 5 4 3 3 3 2 3 3 4 4 4 3 3 3 5 5 5 4 4 4 3 2 2 3 4
10 10 10 12 14 17 17 18 11 7 6 19 18 14 11 7 6 5 5 4 3 3 2 3 4 3 3 3 3 3 3 3 3 4 4 4 3 2 3 3 2 2 1 1 1 0 2 3 5
10 12 10 11 14 14 11 6 5 12 13 14 13 12 10 8 6 5 4 3 2 2 2 3 3 3 3 4 4 4 5 4 4 5 4 4 3 3 4 4 4 3 3 3 2 1 2 4 5
11 12 13 13 16 18 15 12 7 7 9 12 12 11 9 7 6 5 5 4 4 3 3 4 4 5 4 4 3 5 5 5 5 5 4 4 4 3 4 4 3 4 4 3 2 1 3 4 4
11 11 8 6 8 11 14 17 4 5 5 7 9 10 9 7 7 6 5 5 4 4 4 4 5 5 4 4 4 5 5 5 4 5 5 5 4 3 3 2 2 2 1 1 2 2 4 4 4
7 7 8 6 5 7 8 5 3 4 6 8 8 7 7 6 6 6 6 5 4 4 4 4 4 4 4 4 4 4 4 4 5 4 4 3 3 3 2 1 1 1 2 2 2 3 5 4 4
2 1 2 2 7 7 7 6 1 2 7 10 11 9 7 5 4 5 6 5 5 4 4 3 3 3 3 3 3 4 4 4 4 5 4 4 4 4 4 3 3 2 2 2 3 4 4 3 3
Wind_Direction
264 257 253 262 251 244 297 58 64 54 62 54 38 43 65 51 55 92 120 116 110 114 121 122 119 119 120 127 143 150 149 148 147 146 137 126 115 108 104 102 102 110 119 118 112 108 113 129 140
275 272 261 248 255 303 5 63 69 58 61 77 68 57 79 70 87 111 120 114 114 121 130 123 123 122 120 120 131 149 151 151 153 152 139 129 123 118 113 109 107 112 120 128 130 126 125 131 144
267 268 269 256 261 54 46 64 79 80 62 48 69 56 55 84 102 113 121 123 120 124 121 124 129 126 125 122 122 136 150 151 153 149 139 133 130 126 120 117 115 114 119 129 136 147 147 149 156
269 253 239 257 282 81 84 82 102 112 94 56 88 83 74 74 106 120 135 127 124 125 124 131 133 133 132 130 127 127 138 147 148 145 141 135 134 131 125 127 123 116 114 119 131 147 160 168 173
250 262 259 270 284 77 83 82 99 93 76 76 75 90 93 90 108 130 140 133 136 126 126 133 137 137 138 137 135 134 137 142 145 144 140 131 131 132 130 129 129 127 123 123 132 155 173 185 192
256 253 267 277 291 80 95 92 80 91 104 105 108 110 104 116 125 142 139 147 133 126 127 132 138 140 142 144 145 145 145 146 145 142 140 139 146 155 161 164 165 168 174 178 187 197 203 207 210
257 272 276 282 286 258 125 109 119 101 71 98 112 114 126 136 141 138 142 157 130 126 129 142 143 146 149 151 152 152 152 151 151 150 152 159 172 187 200 205 209 215 223 227 225 223 222 223 222
262 279 280 278 272 266 123 128 146 169 116 78 65 119 144 143 145 138 161 143 126 128 139 147 152 153 158 161 163 163 164 166 168 171 177 188 203 214 220 220 215 220 225 231 235 235 234 231 230
246 261 269 272 281 251 120 149 165 118 112 109 51 74 132 143 147 146 160 139 136 135 142 151 153 160 168 170 164 170 178 182 185 191 200 209 223 222 216 225 212 210 219 229 236 239 241 241 236
230 245 254 267 307 346 76 152 185 161 146 141 105 103 131 146 150 154 163 155 153 144 149 154 152 164 177 176 152 179 183 181 200 197 192 207 229 243 206 199 190 202 216 227 234 240 245 242 245
230 242 264 277 296 309 318 291 213 191 185 173 147 139 149 155 156 161 169 162 156 156 164 156 148 168 179 163 159 192 185 164 199 203 186 211 231 218 167 164 175 200 217 225 228 224 231 231 235
238 248 259 271 297 306 285 292 262 212 198 168 152 148 158 167 166 169 172 165 161 174 175 165 149 169 202 182 169 184 181 163 195 178 185 201 201 280 350 126 145 188 214 215 233 222 227 238 242
234 247 264 268 278 276 273 280 278 243 118 113 135 146 163 173 171 171 173 172 165 181 178 162 152 162 196 237 215 186 209 174 184 162 172 239 212 189 190 119 117 247 210 206 240 251 244 243 251
249 243 256 266 250 249 249 260 260 243 143 138 142 153 169 179 174 174 174 178 170 182 182 166 167 163 174 191 234 284 239 184 228 175 170 184 235 185 139 166 195 284 287 224 219 261 255 263 264
265 269 257 254 252 242 246 249 249 229 163 157 163 163 174 183 178 179 174 178 177 182 181 167 173 173 175 195 201 225 235 217 204 200 174 166 199 206 174 206 214 252 295 311 282 288 280 264 261
238 250 255 251 242 237 238 247 249 208 174 167 176 174 176 179 182 178 170 175 185 180 172 176 185 182 180 193 201 222 239 257 174 170 161 166 193 195 165 209 233 244 263 272 270 254 270 272 273
241 240 247 246 233 223 225 236 256 205 179 178 179 176 168 170 182 175 171 177 187 176 165 175 198 183 184 190 195 222 237 280 350 128 127 150 170 181 166 196 239 255 259 266 277 276 241 267 272
248 238 240 245 243 213 223 231 228 211 186 182 173 166 161 167 176 178 181 181 180 175 167 174 189 198 182 181 187 206 221 221 219 184 160 154 164 167 161 195 230 245 237 233 263 289 274 276 285
280 298 300 282 255 211 212 238 242 211 190 181 161 149 147 152 158 176 197 186 174 173 173 179 189 192 192 192 196 200 206 208 218 219 202 188 190 190 196 218 212 217 227 228 241 268 286 270 264
299 291 291 298 297 208 235 255 259 246 193 130 108 113 126 139 140 157 184 190 162 157 166 180 198 201 200 205 211 214 209 210 215 225 222 220 222 226 233 225 220 217 228 244 243 237 249 267 259
272 271 272 279 288 253 239 255 256 243 180 142 136 128 111 126 130 130 109 32 42 72 131 178 179 201 218 220 214 226 216 224 224 227 230 230 231 232 237 239 232 226 223 229 235 236 239 254 265
261 269 276 275 279 273 248 252 241 232 211 177 157 149 121 89 79 71 61 47 45 49 63 69 70 68 57 208 208 226 227 235 241 239 240 234 232 236 231 228 229 229 228 227 236 236 230 243 262
283 308 318 298 285 281 270 264 261 251 218 186 157 141 122 97 82 71 60 55 51 53 59 67 71 66 55 49 91 262 267 280 290 282 264 252 241 236 237 230 230 228 226 226 229 246 246 249 258
294 298 293 280 273 264 261 264 264 266 242 163 129 123 118 107 92 81 73 69 62 61 69 79 84 81 74 62 58 36 9 349 336 331 316 299 277 256 251 248 241 234 224 222 214 220 260 265 273
266 270 272 262 248 252 254 255 276 326 83 129 131 130 122 117 109 98 87 78 77 85 95 110 113 111 102 85 63 47 25 355 2 357 351 350 341 338 326 302 286 264 247 226 157 80 305 291 285
277 273 265 272 274 282 289 291 34 60 78 96 108 115 120 125 124 117 110 99 87 97 113 119 111 99 80 74 63 46 30 25 31 27 17 22 20 24 27 28 21 25 32 40 45 23 300 285 280
280 271 276 276 277 280 275 262 171 131 124 121 122 122 125 126 124 115 101 88 76 70 66 78 93 90 81 72 77 65 49 45 43 41 35 35 30 30 38 40 33 31 29 19 6 318 282 276 271
280 290 278 267 269 265 263 262 251 158 130 124 129 131 133 137 131 117 99 84 71 68 69 75 85 82 73 61 33 72 67 66 60 54 53 46 37 35 36 31 17 5 354 320 307 298 281 271 267
316 337 336 314 271 269 270 269 82 98 124 131 131 132 137 141 133 123 111 97 81 73 73 73 79 80 72 71 64 55 66 80 79 62 52 44 29 12 16 3 312 289 276 277 278 274 272 272 278
336 7 44 327 305 292 286 281 36 127 138 148 152 150 143 132 127 115 104 98 87 71 66 68 68 66 65 72 82 74 63 59 70 67 48 39 27 9 7 349 331 315 306 287 280 288 303 308 321